Location: Asheville, NC
(35.6000°N, 82.5500°W)
Time: 03:57:32
(UTC-04:00)

Envisat - Pass Details

Date: 12 October 2017
Orbit: 764 x 766 km, 98.2° (Epoch: 16 October)

Event Time Altitude Azimuth Distance (km) Brightness Sun altitude
Exits shadow 21:33:58 30° 340° (NNW) 1,335 4.4 -32.2°
Drops below altitude 10° 21:36:31 10° 344° (NNW) 2,304 5.8 -32.8°
Sets 21:38:50 0° 346° (NNW) 3,234 6.6 -33.2°
